Date/Time,Expocode,Latitude,Longitude,Depth,version,SOCAT_DOI,QC_Flag,P_sal,Temp,Temperature of Equilibration,Atmospheric Pressure,Equilibrator Pressure (relative),WOA_SSS,NCEP_SLP,ETOPO2_depth,dist_to_land,GVCO2,CO2 Mole Fraction,xCO2water_SST_dry,pCO2 In Water - Equilibrator Temperature,pCO2,fCO2water_equ_wet,fCO2water_SST_wet,fCO2,fCO2rec_src,fCO2  QC Flag,pCO2  QC Flag,P_sal  QC Flag,Temp  QC Flag
2019-05-16T13:39:46.000Z,26NA20190516,58.669,2.811,,2020.0N,SOCATENHANCEDDOI,B,,20.72,,1024.8,,34.52,1024.9,107.0,158.0,,,,,,,,,0,9,9,9,9
2019-05-16T13:44:17.000Z,26NA20190516,58.676,2.776,,2020.0N,SOCATENHANCEDDOI,B,,9.934,10.36,1024.92,1028.0,34.52,1024.9,108.0,159.0,,,,,,,,,0,9,9,9,9
2019-05-16T13:49:11.000Z,26NA20190516,58.685,2.738,,2020.0N,SOCATENHANCEDDOI,B,,10.168,10.3,1024.85,1028.0,34.52,1024.9,108.0,161.0,,,,,,,,,0,9,9,9,9
2019-05-16T13:53:41.000Z,26NA20190516,58.693,2.703,,2020.0N,SOCATENHANCEDDOI,B,,10.227,10.5,1024.79,1028.0,34.52,1024.9,107.0,163.0,,,,,,,,,0,9,9,9,9
2019-05-16T14:08:57.000Z,26NA20190516,58.719,2.585,,2020.0N,SOCATENHANCEDDOI,B,,10.101,10.32,1024.76,1028.0,34.52,1024.9,105.0,169.0,,,,,,,,,0,9,9,9,9
2019-05-16T14:13:27.000Z,26NA20190516,58.726,2.55,,2020.0N,SOCATENHANCEDDOI,B,,10.052,10.21,1024.68,1027.8,34.52,1024.9,105.0,170.0,,,,,,,,,0,9,9,9,9
2019-05-16T14:17:56.000Z,26NA20190516,58.734,2.515,,2020.0N,SOCATENHANCEDDOI,B,,10.322,10.54,1024.66,1027.7,34.52,1024.9,104.0,172.0,,,,,,,,,0,9,9,9,9
2019-05-16T14:22:26.000Z,26NA20190516,58.742,2.481,,2020.0N,SOCATENHANCEDDOI,B,,10.334,10.57,1024.62,1027.8,34.52,1024.9,103.0,174.0,,,,,,,,,0,9,9,9,9
2019-05-16T14:23:56.000Z,26NA20190516,58.744,2.469,,2020.0N,SOCATENHANCEDDOI,B,,10.338,10.55,1024.65,1027.9,34.52,1024.9,103.0,174.0,,,,,,,,,0,9,9,9,9
2019-05-16T14:25:25.000Z,26NA20190516,58.747,2.458,,2020.0N,SOCATENHANCEDDOI,B,,10.342,10.56,1024.7,1027.7,34.52,1024.9,103.0,175.0,,,,,,,,,0,9,9,9,9
2019-05-16T14:26:55.000Z,26NA20190516,58.749,2.446,,2020.0N,SOCATENHANCEDDOI,B,,10.304,10.55,1024.68,1027.9,34.52,1024.9,103.0,175.0,,,,,,,,,0,9,9,9,9
2019-05-16T14:28:25.000Z,26NA20190516,58.752,2.435,,2020.0N,SOCATENHANCEDDOI,B,,10.272,10.51,1024.57,1027.8,34.52,1026.6,103.0,176.0,,,,,,,,,0,9,9,9,9
2019-05-16T14:33:20.000Z,26NA20190516,58.76,2.397,,2020.0N,SOCATENHANCEDDOI,B,,10.176,10.45,1024.61,1027.7,34.52,1026.6,104.0,178.0,,296.5,,,293.7,,292.5,292.555,4,2,9,9,9
2019-05-16T14:34:52.000Z,26NA20190516,58.763,2.385,,2020.0N,SOCATENHANCEDDOI,B,,10.125,10.39,1024.61,1027.7,34.52,1026.6,104.0,178.0,,287.3,,,284.7,,283.6,283.59,4,2,9,9,9
2019-05-16T14:36:24.000Z,26NA20190516,58.766,2.373,,2020.0N,SOCATENHANCEDDOI,B,,10.058,10.34,1024.53,1027.7,34.52,1026.6,103.0,179.0,,279.9,,,277.2,,276.1,276.118,4,2,9,9,9
2019-05-16T14:37:56.000Z,26NA20190516,58.768,2.361,,2020.0N,SOCATENHANCEDDOI,B,,9.935,10.26,1024.6,1027.7,34.52,1026.6,103.0,180.0,,275.6,,,272.4,,271.3,271.335,4,2,9,9,9
2019-05-16T14:39:28.000Z,26NA20190516,58.771,2.349,,2020.0N,SOCATENHANCEDDOI,B,,9.795,10.13,1024.57,1027.7,34.52,1026.6,102.0,180.0,,273.7,,,270.5,,269.5,269.441,4,2,9,9,9
2019-05-16T14:41:00.000Z,26NA20190516,58.773,2.337,,2020.0N,SOCATENHANCEDDOI,B,,9.766,10.01,1024.52,1027.8,34.52,1026.6,102.0,181.0,,275.0,,,272.9,,271.8,271.831,4,2,9,9,9
2019-05-16T14:42:54.000Z,26NA20190516,58.777,2.323,,2020.0N,SOCATENHANCEDDOI,B,,9.879,10.04,1024.49,1027.4,34.52,1026.6,103.0,181.0,,277.9,,,276.6,,275.5,275.518,4,2,9,9,9
2019-05-16T14:44:26.000Z,26NA20190516,58.779,2.311,,2020.0N,SOCATENHANCEDDOI,B,,9.985,10.13,1024.53,1027.5,34.52,1026.6,103.0,182.0,,280.0,,,278.9,,277.8,277.811,4,2,9,9,9
2019-05-16T14:45:58.000Z,26NA20190516,58.782,2.299,,2020.0N,SOCATENHANCEDDOI,B,,10.065,10.21,1024.5,1027.4,34.52,1026.6,103.0,182.0,,281.5,,,280.3,,279.2,279.206,4,2,9,9,9
2019-05-16T14:47:30.000Z,26NA20190516,58.785,2.287,,2020.0N,SOCATENHANCEDDOI,B,,10.104,10.3,1024.47,1027.6,34.52,1026.6,103.0,183.0,,282.0,,,280.3,,279.2,279.207,4,2,9,9,9
2019-05-16T14:49:02.000Z,26NA20190516,58.788,2.275,,2020.0N,SOCATENHANCEDDOI,B,,10.165,10.33,1024.42,1027.6,34.52,1026.6,103.0,184.0,,281.5,,,280.1,,279.0,279.008,4,2,9,9,9
2019-05-16T14:50:34.000Z,26NA20190516,58.79,2.264,,2020.0N,SOCATENHANCEDDOI,B,,10.211,10.39,1024.53,1027.4,34.52,1026.6,103.0,184.0,,281.0,,,279.4,,278.3,278.312,4,2,9,9,9
2019-05-16T14:52:06.000Z,26NA20190516,58.793,2.252,,2020.0N,SOCATENHANCEDDOI,B,,10.231,10.43,1024.43,1027.6,34.52,1026.6,104.0,185.0,,280.4,,,278.6,,277.5,277.515,4,2,9,9,9
2019-05-16T14:53:38.000Z,26NA20190516,58.796,2.24,,2020.0N,SOCATENHANCEDDOI,B,,10.132,10.41,1024.47,1027.4,34.52,1026.6,104.0,185.0,,278.7,,,275.9,,274.8,274.825,4,2,9,9,9
2019-05-16T14:55:11.000Z,26NA20190516,58.798,2.228,,2020.0N,SOCATENHANCEDDOI,B,,10.188,10.37,1024.41,1027.6,34.52,1026.6,104.0,186.0,,275.8,,,274.2,,273.2,273.132,4,2,9,9,9
2019-05-16T14:56:43.000Z,26NA20190516,58.801,2.216,,2020.0N,SOCATENHANCEDDOI,B,,10.217,10.41,1024.34,1027.4,34.52,1026.6,104.0,186.0,,272.9,,,271.2,,270.1,270.144,4,2,9,9,9
2019-05-16T14:58:15.000Z,26NA20190516,58.804,2.205,,2020.0N,SOCATENHANCEDDOI,B,,10.23,10.42,1024.37,1027.5,34.52,1026.6,104.0,187.0,,269.9,,,268.2,,267.2,267.156,4,2,9,9,9
2019-05-16T14:59:47.000Z,26NA20190516,58.807,2.193,,2020.0N,SOCATENHANCEDDOI,B,,10.241,10.45,1024.36,1027.4,34.52,1026.6,104.0,187.0,,267.1,,,265.2,,264.2,264.168,4,2,9,9,9
2019-05-16T15:01:19.000Z,26NA20190516,58.81,2.181,,2020.0N,SOCATENHANCEDDOI,B,,10.145,10.4,1024.3,1027.4,34.52,1026.6,105.0,188.0,,265.0,,,262.6,,261.6,261.577,4,2,9,9,9
2019-05-16T15:02:52.000Z,26NA20190516,58.813,2.17,,2020.0N,SOCATENHANCEDDOI,B,,10.126,10.36,1024.17,1027.4,34.52,1026.6,105.0,189.0,,263.2,,,261.0,,260.0,259.983,4,2,9,9,9
2019-05-16T15:04:24.000Z,26NA20190516,58.816,2.158,,2020.0N,SOCATENHANCEDDOI,B,,10.113,10.34,1024.25,1027.3,34.52,1026.6,105.0,189.0,,261.7,,,259.7,,258.7,258.688,4,2,9,9,9
2019-05-16T15:05:56.000Z,26NA20190516,58.819,2.146,,2020.0N,SOCATENHANCEDDOI,B,,10.095,10.31,1024.24,1027.3,34.52,1026.6,105.0,190.0,,261.0,,,259.1,,258.1,258.09,4,2,9,9,9
2019-05-16T15:07:28.000Z,26NA20190516,58.821,2.135,,2020.0N,SOCATENHANCEDDOI,B,,10.057,10.3,1024.25,1027.4,34.52,1026.6,105.0,190.0,,260.7,,,258.5,,257.5,257.491,4,2,9,9,9
2019-05-16T15:09:00.000Z,26NA20190516,58.824,2.123,,2020.0N,SOCATENHANCEDDOI,B,,10.168,10.27,1024.13,1027.3,34.52,1026.6,105.0,191.0,,260.8,,,260.2,,259.2,259.186,4,2,9,9,9
2019-05-16T15:10:33.000Z,26NA20190516,58.827,2.111,,2020.0N,SOCATENHANCEDDOI,B,,10.231,10.39,1024.21,1027.2,34.52,1026.6,105.0,191.0,,260.9,,,259.6,,258.6,258.59,4,2,9,9,9
2019-05-16T15:12:05.000Z,26NA20190516,58.83,2.099,,2020.0N,SOCATENHANCEDDOI,B,,10.206,10.44,1024.12,1027.4,34.52,1026.6,105.0,192.0,,261.2,,,259.0,,258.0,257.991,4,2,9,9,9
2019-05-16T15:13:37.000Z,26NA20190516,58.833,2.088,,2020.0N,SOCATENHANCEDDOI,B,,10.205,10.43,1024.19,1027.2,34.52,1026.6,106.0,192.0,,261.7,,,259.6,,258.6,258.589,4,2,9,9,9
2019-05-16T15:15:09.000Z,26NA20190516,58.836,2.076,,2020.0N,SOCATENHANCEDDOI,B,,10.156,10.41,1024.09,1027.2,34.52,1026.6,106.0,193.0,,262.3,,,259.9,,258.9,258.887,4,2,9,9,9
2019-05-16T15:16:41.000Z,26NA20190516,58.839,2.064,,2020.0N,SOCATENHANCEDDOI,B,,10.179,10.36,1024.06,1027.3,34.52,1026.6,106.0,193.0,,262.9,,,261.3,,260.3,260.282,4,2,9,9,9
2019-05-16T15:18:14.000Z,26NA20190516,58.842,2.053,,2020.0N,SOCATENHANCEDDOI,B,,10.212,10.43,1024.09,1027.0,34.52,1026.6,107.0,194.0,,264.2,,,262.1,,261.1,261.08,4,2,9,9,9
2019-05-16T15:19:46.000Z,26NA20190516,58.845,2.041,,2020.0N,SOCATENHANCEDDOI,B,,10.167,10.42,1024.1,1027.2,34.52,1026.6,107.0,194.0,,266.2,,,263.8,,262.8,262.772,4,2,9,9,9
2019-05-16T15:21:18.000Z,26NA20190516,58.848,2.03,,2020.0N,SOCATENHANCEDDOI,B,,10.209,10.38,1024.05,1027.2,34.52,1026.6,107.0,195.0,,268.1,,,266.6,,265.5,265.562,4,2,9,9,9
2019-05-16T15:22:50.000Z,26NA20190516,58.851,2.018,,2020.0N,SOCATENHANCEDDOI,B,,10.265,10.44,1024.08,1027.2,34.52,1026.6,107.0,195.0,,269.5,,,267.9,,266.8,266.858,4,2,9,9,9
2019-05-16T15:24:23.000Z,26NA20190516,58.854,2.006,,2020.0N,SOCATENHANCEDDOI,B,,10.291,10.47,1023.95,1027.1,34.52,1026.6,107.0,196.0,,270.1,,,268.4,,267.4,267.356,4,2,9,9,9
2019-05-16T15:25:55.000Z,26NA20190516,58.856,1.995,,2020.0N,SOCATENHANCEDDOI,B,,10.251,10.49,1024.01,1027.1,34.797,1026.6,107.0,196.0,,270.3,,,267.9,,266.9,266.858,4,2,9,9,9
2019-05-16T15:27:27.000Z,26NA20190516,58.859,1.983,,2020.0N,SOCATENHANCEDDOI,B,,10.157,10.44,1023.96,1027.1,34.797,1026.6,107.0,197.0,,270.1,,,267.3,,266.2,266.259,4,2,9,9,9
2019-05-16T15:28:59.000Z,26NA20190516,58.862,1.971,,2020.0N,SOCATENHANCEDDOI,B,,10.106,10.36,1023.97,1027.2,34.797,1026.6,107.0,197.0,,269.7,,,267.2,,266.2,266.158,4,2,9,9,9
2019-05-16T15:30:31.000Z,26NA20190516,58.865,1.96,,2020.0N,SOCATENHANCEDDOI,B,,10.122,10.31,1024.05,1027.0,34.797,1026.6,107.0,198.0,,268.9,,,267.2,,266.2,266.159,4,2,9,9,9
2019-05-16T15:32:03.000Z,26NA20190516,58.868,1.948,,2020.0N,SOCATENHANCEDDOI,B,,10.231,10.39,1024.04,1027.1,34.797,1026.6,107.0,198.0,,268.4,,,267.0,,266.0,265.961,4,2,9,9,9
2019-05-16T15:33:36.000Z,26NA20190516,58.871,1.936,,2020.0N,SOCATENHANCEDDOI,B,,10.308,10.46,1023.96,1027.1,34.797,1026.6,107.0,199.0,,269.1,,,267.8,,266.7,266.759,4,2,9,9,9
2019-05-16T15:35:08.000Z,26NA20190516,58.874,1.925,,2020.0N,SOCATENHANCEDDOI,B,,10.387,10.54,1023.95,1027.1,34.797,1026.6,107.0,199.0,,270.9,,,269.5,,268.5,268.453,4,2,9,9,9
2019-05-16T15:36:40.000Z,26NA20190516,58.877,1.913,,2020.0N,SOCATENHANCEDDOI,B,,10.383,10.59,1024.01,1027.0,34.797,1026.6,107.0,200.0,,273.6,,,271.6,,270.5,270.545,4,2,9,9,9
2019-05-16T15:38:13.000Z,26NA20190516,58.88,1.901,,2020.0N,SOCATENHANCEDDOI,B,,10.347,10.57,1023.98,1026.9,34.797,1026.6,107.0,201.0,,276.1,,,273.8,,272.8,272.736,4,2,9,9,9
2019-05-16T15:39:45.000Z,26NA20190516,58.883,1.89,,2020.0N,SOCATENHANCEDDOI,B,,10.287,10.54,1023.86,1027.1,34.797,1026.6,107.0,201.0,,277.8,,,275.2,,274.1,274.13,4,2,9,9,9
2019-05-16T15:41:17.000Z,26NA20190516,58.886,1.878,,2020.0N,SOCATENHANCEDDOI,B,,10.261,10.5,1023.79,1027.0,34.797,1026.6,107.0,202.0,,278.6,,,276.1,,275.0,275.026,4,2,9,9,9
2019-05-16T15:43:10.000Z,26NA20190516,58.889,1.864,,2020.0N,SOCATENHANCEDDOI,B,,10.286,10.5,1023.84,1026.9,34.797,1026.6,107.0,202.0,,278.5,,,276.3,,275.2,275.226,4,2,9,9,9
2019-05-16T15:44:43.000Z,26NA20190516,58.892,1.852,,2020.0N,SOCATENHANCEDDOI,B,,10.342,10.52,1023.78,1026.9,34.797,1026.6,107.0,203.0,,278.1,,,276.3,,275.3,275.226,4,2,9,9,9
2019-05-16T15:46:15.000Z,26NA20190516,58.895,1.84,,2020.0N,SOCATENHANCEDDOI,B,,10.333,10.56,1023.83,1026.9,34.797,1026.6,107.0,203.0,,277.7,,,275.4,,274.3,274.33,4,2,9,9,9
2019-05-16T15:47:47.000Z,26NA20190516,58.898,1.828,,2020.0N,SOCATENHANCEDDOI,B,,10.29,10.53,1023.83,1027.0,34.797,1026.6,107.0,204.0,,277.5,,,275.1,,274.0,274.03,4,2,9,9,9
2019-05-16T15:49:19.000Z,26NA20190516,58.901,1.817,,2020.0N,SOCATENHANCEDDOI,B,,10.273,10.52,1023.89,1026.9,34.797,1026.6,107.0,204.0,,277.0,,,274.4,,273.3,273.333,4,2,9,9,9
2019-05-16T15:50:51.000Z,26NA20190516,58.904,1.805,,2020.0N,SOCATENHANCEDDOI,B,,10.22,10.48,1023.84,1026.8,34.797,1026.6,107.0,205.0,,275.8,,,273.1,,272.1,272.037,4,2,9,9,9
2019-05-16T15:52:23.000Z,26NA20190516,58.907,1.793,,2020.0N,SOCATENHANCEDDOI,B,,10.239,10.43,1023.85,1026.9,34.797,1026.6,107.0,205.0,,273.4,,,271.5,,270.5,270.444,4,2,9,9,9
2019-05-16T15:53:55.000Z,26NA20190516,58.909,1.781,,2020.0N,SOCATENHANCEDDOI,B,,10.267,10.46,1023.84,1027.0,34.797,1026.6,106.0,206.0,,270.8,,,268.9,,267.9,267.854,4,2,9,9,9
2019-05-16T15:55:27.000Z,26NA20190516,58.912,1.769,,2020.0N,SOCATENHANCEDDOI,B,,10.217,10.47,1023.89,1026.8,34.797,1026.6,106.0,206.0,,269.0,,,266.5,,265.4,265.463,4,2,9,9,9
2019-05-16T15:56:59.000Z,26NA20190516,58.915,1.758,,2020.0N,SOCATENHANCEDDOI,B,,10.223,10.44,1023.87,1026.9,34.797,1026.6,105.0,207.0,,268.2,,,266.1,,265.1,265.064,4,2,9,9,9
2019-05-16T15:58:31.000Z,26NA20190516,58.918,1.746,,2020.0N,SOCATENHANCEDDOI,B,,10.221,10.44,1023.91,1026.8,34.797,1026.6,105.0,208.0,,267.6,,,265.4,,264.4,264.367,4,2,9,9,9
2019-05-16T16:00:04.000Z,26NA20190516,58.921,1.734,,2020.0N,SOCATENHANCEDDOI,B,,10.227,10.43,1023.82,1027.0,34.797,1026.6,106.0,208.0,,266.3,,,264.4,,263.4,263.371,4,2,9,9,9
2019-05-16T16:01:36.000Z,26NA20190516,58.924,1.722,,2020.0N,SOCATENHANCEDDOI,B,,10.3,10.47,1023.85,1026.9,34.797,1026.6,106.0,209.0,,263.2,,,261.7,,260.7,260.683,4,2,9,9,9
2019-05-16T16:03:08.000Z,26NA20190516,58.927,1.711,,2020.0N,SOCATENHANCEDDOI,B,,10.301,10.53,1023.86,1026.7,34.797,1026.6,106.0,209.0,,258.7,,,256.4,,255.4,255.403,4,2,9,9,9
2019-05-16T16:04:40.000Z,26NA20190516,58.93,1.699,,2020.0N,SOCATENHANCEDDOI,B,,10.271,10.54,1023.77,1026.8,34.797,1026.6,107.0,210.0,,255.1,,,252.5,,251.5,251.518,4,2,9,9,9
2019-05-16T16:06:12.000Z,26NA20190516,58.932,1.687,,2020.0N,SOCATENHANCEDDOI,B,,10.211,10.49,1023.87,1026.7,34.797,1026.6,107.0,210.0,,252.6,,,249.9,,249.0,248.928,4,2,9,9,9
2019-05-16T16:07:44.000Z,26NA20190516,58.935,1.675,,2020.0N,SOCATENHANCEDDOI,B,,10.215,10.47,1023.79,1026.8,34.797,1026.6,107.0,211.0,,250.6,,,248.1,,247.2,247.135,4,2,9,9,9
2019-05-16T16:09:16.000Z,26NA20190516,58.938,1.663,,2020.0N,SOCATENHANCEDDOI,B,,10.154,10.45,1023.78,1026.8,34.797,1026.6,108.0,211.0,,249.0,,,246.2,,245.2,245.241,4,2,9,9,9
2019-05-16T16:10:49.000Z,26NA20190516,58.941,1.651,,2020.0N,SOCATENHANCEDDOI,B,,10.17,10.36,1023.74,1026.8,34.797,1026.6,108.0,212.0,,247.5,,,245.8,,244.8,244.843,4,2,9,9,9
2019-05-16T16:12:21.000Z,26NA20190516,58.943,1.639,,2020.0N,SOCATENHANCEDDOI,B,,10.202,10.41,1023.7,1026.9,34.797,1026.6,109.0,213.0,,245.9,,,244.1,,243.1,243.15,4,2,9,9,9
2019-05-16T16:13:53.000Z,26NA20190516,58.946,1.627,,2020.0N,SOCATENHANCEDDOI,B,,10.269,10.44,1023.78,1026.7,34.797,1026.6,110.0,213.0,,243.8,,,242.3,,241.4,241.358,4,2,9,9,9
2019-05-16T16:15:26.000Z,26NA20190516,58.949,1.615,,2020.0N,SOCATENHANCEDDOI,B,,10.247,10.47,1023.76,1026.7,34.797,1026.6,111.0,214.0,,242.8,,,240.7,,239.8,239.764,4,2,9,9,9
2019-05-16T16:16:58.000Z,26NA20190516,58.952,1.604,,2020.0N,SOCATENHANCEDDOI,B,,10.252,10.47,1023.68,1026.8,34.797,1026.6,111.0,214.0,,243.2,,,241.2,,240.3,240.262,4,2,9,9,9
2019-05-16T16:18:30.000Z,26NA20190516,58.954,1.592,,2020.0N,SOCATENHANCEDDOI,B,,10.226,10.45,1023.65,1026.7,34.797,1026.6,112.0,215.0,,244.5,,,242.4,,241.5,241.457,4,2,9,9,9
2019-05-16T16:20:02.000Z,26NA20190516,58.957,1.58,,2020.0N,SOCATENHANCEDDOI,B,,10.206,10.43,1023.73,1026.7,34.797,1026.6,112.0,215.0,,246.9,,,244.8,,243.9,243.847,4,2,9,9,9
2019-05-16T16:21:34.000Z,26NA20190516,58.96,1.568,,2020.0N,SOCATENHANCEDDOI,B,,10.183,10.41,1023.57,1027.0,34.797,1026.6,112.0,216.0,,249.8,,,247.8,,246.8,246.835,4,2,9,9,9
2019-05-16T16:23:06.000Z,26NA20190516,58.963,1.556,,2020.0N,SOCATENHANCEDDOI,B,,10.115,10.37,1023.66,1026.8,34.797,1026.6,113.0,216.0,,252.2,,,249.8,,248.9,248.827,4,2,9,9,9
2019-05-16T16:24:38.000Z,26NA20190516,58.966,1.544,,2020.0N,SOCATENHANCEDDOI,B,,10.104,10.32,1023.72,1026.6,34.797,1026.6,113.0,217.0,,253.7,,,251.7,,250.7,250.719,4,2,9,9,9
2019-05-16T16:26:10.000Z,26NA20190516,58.968,1.532,,2020.0N,SOCATENHANCEDDOI,B,,10.282,10.37,1023.71,1026.7,34.797,1026.6,113.0,217.0,,253.9,,,253.3,,252.3,252.315,4,2,9,9,9
2019-05-16T16:27:42.000Z,26NA20190516,58.971,1.521,,2020.0N,SOCATENHANCEDDOI,B,,10.261,10.48,1023.74,1026.7,34.797,1026.6,112.0,218.0,,253.3,,,251.2,,250.2,250.223,4,2,9,9,9
2019-05-16T16:29:15.000Z,26NA20190516,58.974,1.509,,2020.0N,SOCATENHANCEDDOI,B,,10.205,10.47,1023.71,1026.8,34.797,1026.6,112.0,219.0,,252.6,,,250.1,,249.1,249.127,4,2,9,9,9
2019-05-16T16:30:47.000Z,26NA20190516,58.977,1.497,,2020.0N,SOCATENHANCEDDOI,B,,10.139,10.41,1023.71,1026.8,34.797,1026.6,113.0,219.0,,252.4,,,249.8,,248.9,248.827,4,2,9,9,9
2019-05-16T16:32:19.000Z,26NA20190516,58.98,1.485,,2020.0N,SOCATENHANCEDDOI,B,,10.067,10.35,1023.66,1026.9,34.797,1026.6,113.0,220.0,,252.5,,,249.8,,248.8,248.826,4,2,9,9,9
2019-05-16T16:33:51.000Z,26NA20190516,58.982,1.474,,2020.0N,SOCATENHANCEDDOI,B,,10.094,10.32,1023.69,1026.7,34.797,1026.6,113.0,220.0,,252.8,,,250.6,,249.7,249.623,4,2,9,9,9
2019-05-16T16:35:24.000Z,26NA20190516,58.985,1.462,,2020.0N,SOCATENHANCEDDOI,B,,10.15,10.31,1023.66,1026.8,34.797,1026.6,113.0,221.0,,252.5,,,251.1,,250.1,250.122,4,2,9,9,9
2019-05-16T16:39:54.000Z,26NA20190516,58.993,1.427,,2020.0N,SOCATENHANCEDDOI,B,,10.192,10.35,1023.61,1026.5,34.797,1026.6,114.0,222.0,,,,,,,,,0,9,9,9,9
2019-05-16T16:44:23.000Z,26NA20190516,59.001,1.393,,2020.0N,SOCATENHANCEDDOI,B,,10.066,10.37,1023.49,1026.8,34.77,1026.6,114.0,224.0,,,,,,,,,0,9,9,9,9
2019-05-16T16:49:14.000Z,26NA20190516,59.01,1.355,,2020.0N,SOCATENHANCEDDOI,B,,10.03,10.33,1023.43,1026.6,34.77,1026.6,115.0,226.0,,,,,,,,,0,9,9,9,9
2019-05-16T16:53:44.000Z,26NA20190516,59.018,1.32,,2020.0N,SOCATENHANCEDDOI,B,,10.186,10.39,1023.42,1026.6,34.77,1026.6,117.0,228.0,,,,,,,,,0,9,9,9,9
2019-05-16T16:58:14.000Z,26NA20190516,59.026,1.286,,2020.0N,SOCATENHANCEDDOI,B,,10.001,10.24,1023.35,1026.4,34.77,1026.6,120.0,229.0,,,,,,,,,0,9,9,9,9
2019-05-16T16:59:44.000Z,26NA20190516,59.028,1.274,,2020.0N,SOCATENHANCEDDOI,B,,10.019,10.24,1023.34,1026.4,34.77,1026.6,120.0,230.0,,,,,,,,,0,9,9,9,9
2019-05-16T17:01:14.000Z,26NA20190516,59.031,1.262,,2020.0N,SOCATENHANCEDDOI,B,,9.951,10.23,1023.3,1026.5,34.77,1026.6,121.0,230.0,,,,,,,,,0,9,9,9,9
2019-05-16T17:02:44.000Z,26NA20190516,59.033,1.25,,2020.0N,SOCATENHANCEDDOI,B,,9.874,10.15,1023.37,1026.4,34.77,1026.6,121.0,231.0,,,,,,,,,0,9,9,9,9
2019-05-16T17:04:14.000Z,26NA20190516,59.036,1.239,,2020.0N,SOCATENHANCEDDOI,B,,9.913,10.11,1023.33,1026.4,34.77,1025.7,121.0,231.0,,,,,,,,,0,9,9,9,9
2019-05-16T17:09:09.000Z,26NA20190516,59.045,1.2,,2020.0N,SOCATENHANCEDDOI,B,,10.013,10.15,1023.29,1026.5,34.77,1025.7,120.0,233.0,,249.4,,,248.2,,247.3,247.232,4,2,9,9,9
2019-05-16T17:10:41.000Z,26NA20190516,59.047,1.188,,2020.0N,SOCATENHANCEDDOI,B,,9.91,10.2,1023.35,1026.5,34.77,1025.7,119.0,234.0,,249.0,,,246.3,,245.3,245.338,4,2,9,9,9
2019-05-16T17:12:13.000Z,26NA20190516,59.05,1.176,,2020.0N,SOCATENHANCEDDOI,B,,9.876,10.12,1023.37,1026.4,34.77,1025.7,119.0,235.0,,249.5,,,247.2,,246.2,246.234,4,2,9,9,9
2019-05-16T17:13:45.000Z,26NA20190516,59.053,1.164,,2020.0N,SOCATENHANCEDDOI,B,,9.937,10.09,1023.27,1026.3,34.77,1025.7,118.0,235.0,,250.5,,,249.1,,248.1,248.128,4,2,9,9,9
2019-05-16T17:15:17.000Z,26NA20190516,59.056,1.152,,2020.0N,SOCATENHANCEDDOI,B,,9.931,10.12,1023.32,1026.4,34.77,1025.7,118.0,235.0,,251.1,,,249.4,,248.4,248.426,4,2,9,9,9
2019-05-16T17:16:49.000Z,26NA20190516,59.058,1.141,,2020.0N,SOCATENHANCEDDOI,B,,9.994,10.16,1023.26,1026.5,34.77,1025.7,118.0,234.0,,251.3,,,249.8,,248.9,248.825,4,2,9,9,9
2019-05-16T17:18:21.000Z,26NA20190516,59.061,1.129,,2020.0N,SOCATENHANCEDDOI,B,,10.056,10.21,1023.28,1026.3,34.77,1025.7,117.0,234.0,,251.4,,,250.0,,249.0,249.026,4,2,9,9,9
2019-05-16T17:19:54.000Z,26NA20190516,59.064,1.117,,2020.0N,SOCATENHANCEDDOI,B,,9.993,10.24,1023.25,1026.2,34.77,1025.7,117.0,234.0,,251.0,,,248.5,,247.6,247.531,4,2,9,9,9
2019-05-16T17:21:26.000Z,26NA20190516,59.067,1.106,,2020.0N,SOCATENHANCEDDOI,B,,10.03,10.22,1023.21,1026.4,34.77,1025.7,117.0,234.0,,250.3,,,248.5,,247.6,247.531,4,2,9,9,9
2019-05-16T17:22:58.000Z,26NA20190516,59.07,1.094,,2020.0N,SOCATENHANCEDDOI,B,,10.037,10.26,1023.24,1026.2,34.77,1025.7,117.0,233.0,,249.2,,,247.0,,246.0,246.037,4,2,9,9,9
2019-05-16T17:24:30.000Z,26NA20190516,59.073,1.083,,2020.0N,SOCATENHANCEDDOI,B,,9.961,10.22,1023.2,1026.3,34.77,1025.7,116.0,233.0,,248.3,,,245.8,,244.9,244.841,4,2,9,9,9
2019-05-16T17:26:02.000Z,26NA20190516,59.076,1.071,,2020.0N,SOCATENHANCEDDOI,B,,10.096,10.21,1023.2,1026.2,34.77,1025.7,116.0,233.0,,248.3,,,247.3,,246.3,246.337,4,2,9,9,9
2019-05-16T17:27:34.000Z,26NA20190516,59.079,1.06,,2020.0N,SOCATENHANCEDDOI,B,,10.109,10.31,1023.16,1026.2,34.77,1025.7,117.0,233.0,,249.1,,,247.2,,246.2,246.237,4,2,9,9,9
2019-05-16T17:29:06.000Z,26NA20190516,59.082,1.048,,2020.0N,SOCATENHANCEDDOI,B,,9.869,10.29,1023.16,1026.2,34.77,1025.7,117.0,233.0,,250.3,,,246.1,,245.1,245.139,4,2,9,9,9
2019-05-16T17:30:39.000Z,26NA20190516,59.085,1.036,,2020.0N,SOCATENHANCEDDOI,B,,9.709,10.03,1023.14,1026.2,34.77,1025.7,117.0,233.0,,251.7,,,248.5,,247.6,247.527,4,2,9,9,9
2019-05-16T17:32:11.000Z,26NA20190516,59.087,1.025,,2020.0N,SOCATENHANCEDDOI,B,,9.714,9.94,1023.13,1026.1,34.77,1025.7,117.0,232.0,,252.9,,,250.8,,249.8,249.818,4,2,9,9,9
2019-05-16T17:33:43.000Z,26NA20190516,59.09,1.013,,2020.0N,SOCATENHANCEDDOI,B,,9.715,9.94,1023.1,1026.1,34.77,1025.7,117.0,232.0,,252.8,,,250.6,,249.6,249.619,4,2,9,9,9
2019-05-16T17:35:15.000Z,26NA20190516,59.093,1.001,,2020.0N,SOCATENHANCEDDOI,B,,9.711,9.93,1023.08,1026.1,34.77,1025.7,117.0,232.0,,252.1,,,250.0,,249.1,249.021,4,2,9,9,9
2019-05-16T17:36:47.000Z,26NA20190516,59.096,0.989,,2020.0N,SOCATENHANCEDDOI,B,,9.807,9.97,1023.12,1026.1,34.998,1025.7,118.0,232.0,,251.0,,,249.5,,248.5,248.525,4,2,9,9,9
2019-05-16T17:38:19.000Z,26NA20190516,59.099,0.978,,2020.0N,SOCATENHANCEDDOI,B,,9.833,10.04,1023.17,1026.1,34.998,1025.7,118.0,232.0,,250.2,,,248.3,,247.3,247.33,4,2,9,9,9
2019-05-16T17:39:51.000Z,26NA20190516,59.102,0.966,,2020.0N,SOCATENHANCEDDOI,B,,9.746,10.07,1023.06,1026.2,34.998,1025.7,118.0,232.0,,247.8,,,244.6,,243.6,243.643,4,2,9,9,9
2019-05-16T17:41:24.000Z,26NA20190516,59.104,0.954,,2020.0N,SOCATENHANCEDDOI,B,,9.814,9.96,1023.11,1026.2,34.998,1025.7,118.0,232.0,,247.2,,,245.9,,245.0,244.939,4,2,9,9,9
2019-05-16T17:43:18.000Z,26NA20190516,59.108,0.94,,2020.0N,SOCATENHANCEDDOI,B,,9.933,10.1,1023.02,1026.1,34.998,1025.7,119.0,231.0,,249.4,,,247.8,,246.8,246.833,4,2,9,9,9
2019-05-16T17:44:50.000Z,26NA20190516,59.111,0.928,,2020.0N,SOCATENHANCEDDOI,B,,9.928,10.15,1023.06,1026.1,34.998,1025.7,119.0,231.0,,250.5,,,248.3,,247.4,247.331,4,2,9,9,9
2019-05-16T17:46:22.000Z,26NA20190516,59.114,0.917,,2020.0N,SOCATENHANCEDDOI,B,,9.922,10.14,1023.0,1026.0,34.998,1025.7,119.0,231.0,,250.5,,,248.3,,247.4,247.331,4,2,9,9,9
2019-05-16T17:47:55.000Z,26NA20190516,59.117,0.905,,2020.0N,SOCATENHANCEDDOI,B,,9.957,10.13,1022.98,1026.1,34.998,1025.7,119.0,231.0,,250.1,,,248.4,,247.5,247.431,4,2,9,9,9
2019-05-16T17:49:27.000Z,26NA20190516,59.119,0.894,,2020.0N,SOCATENHANCEDDOI,B,,9.978,10.17,1022.96,1026.0,34.998,1025.7,119.0,231.0,,250.2,,,248.3,,247.4,247.332,4,2,9,9,9
2019-05-16T17:50:59.000Z,26NA20190516,59.122,0.882,,2020.0N,SOCATENHANCEDDOI,B,,9.985,10.19,1022.98,1025.9,34.998,1025.7,119.0,231.0,,250.9,,,248.8,,247.9,247.83,4,2,9,9,9
2019-05-16T17:52:31.000Z,26NA20190516,59.125,0.871,,2020.0N,SOCATENHANCEDDOI,B,,10.025,10.2,1022.83,1026.1,34.998,1025.7,119.0,231.0,,250.5,,,248.8,,247.8,247.83,4,2,9,9,9
2019-05-16T17:54:03.000Z,26NA20190516,59.128,0.859,,2020.0N,SOCATENHANCEDDOI,B,,10.08,10.25,1022.94,1026.1,34.998,1025.7,119.0,231.0,,249.3,,,247.6,,246.7,246.635,4,2,9,9,9
2019-05-16T17:55:35.000Z,26NA20190516,59.131,0.848,,2020.0N,SOCATENHANCEDDOI,B,,10.077,10.29,1022.88,1026.0,34.998,1025.7,119.0,231.0,,248.0,,,245.9,,244.9,244.942,4,2,9,9,9
2019-05-16T17:57:07.000Z,26NA20190516,59.134,0.836,,2020.0N,SOCATENHANCEDDOI,B,,10.01,10.27,1022.83,1026.0,34.998,1025.7,120.0,231.0,,247.3,,,244.7,,243.8,243.746,4,2,9,9,9
2019-05-16T17:58:40.000Z,26NA20190516,59.137,0.824,,2020.0N,SOCATENHANCEDDOI,B,,9.933,10.19,1022.76,1026.2,34.998,1025.7,121.0,230.0,,247.0,,,244.5,,243.6,243.546,4,2,9,9,9
2019-05-16T18:00:12.000Z,26NA20190516,59.14,0.813,,2020.0N,SOCATENHANCEDDOI,B,,10.002,10.17,1022.87,1025.9,34.998,1024.9,122.0,230.0,,247.3,,,245.7,,244.7,244.742,4,2,9,9,9
2019-05-16T18:01:44.000Z,26NA20190516,59.142,0.801,,2020.0N,SOCATENHANCEDDOI,B,,10.017,10.22,1022.8,1025.9,34.998,1024.9,123.0,229.0,,247.6,,,245.6,,244.7,244.643,4,2,9,9,9
2019-05-16T18:03:16.000Z,26NA20190516,59.145,0.79,,2020.0N,SOCATENHANCEDDOI,B,,10.046,10.23,1022.8,1026.0,34.998,1024.9,124.0,229.0,,247.6,,,245.8,,244.9,244.842,4,2,9,9,9
2019-05-16T18:04:48.000Z,26NA20190516,59.148,0.778,,2020.0N,SOCATENHANCEDDOI,B,,10.088,10.28,1022.82,1026.0,34.998,1024.9,125.0,228.0,,247.7,,,245.8,,244.8,244.843,4,2,9,9,9
2019-05-16T18:06:20.000Z,26NA20190516,59.151,0.767,,2020.0N,SOCATENHANCEDDOI,B,,10.028,10.3,1022.82,1026.0,34.998,1024.9,126.0,227.0,,247.6,,,244.9,,243.9,243.945,4,2,9,9,9